Simultaneous Nadir Overpasses (SNOs) Predictions

Prediction of SNOs between NOAA-19 and TERRA Satellite Orbit:

Table of predicted SNOs for the next 14.0 days since TLE Epoch: 10/24/2015
Index Date (NOAA-19) Time (NOAA-19) Lat,Lon (NOAA-19) SZA (NOAA-19 ) Date (TERRA) Time (TERRA) Lat,Lon (TERRA) SZA (TERRA ) Distance(km) Time Diff (sec)
1 10/25/2015 17:01:52 72.70, -70.65 84.96 10/25/2015 17:02:43 72.68, -70.69 84.95 2.44 51
2 10/25/2015 17:52:45 -72.62, 96.80 95.11 10/25/2015 17:52:12 -72.62, 96.82 95.12 0.49 33
3 10/27/2015 22:36:01 -72.69, 25.88 94.29 10/27/2015 22:36:29 -72.69, 25.88 94.29 0.17 28
4 10/27/2015 23:27:07 72.61,-166.73 85.65 10/27/2015 23:25:56 72.60,-166.65 85.63 3.03 71
5 10/30/2015 03:19:29 -73.36, -46.40 92.95 10/30/2015 03:20:36 -73.28, -44.04 92.92 75.88 67
6 10/30/2015 04:10:22 72.65, 122.41 86.42 10/30/2015 04:10:13 72.66, 122.38 86.43 1.48 9
7 10/30/2015 05:01:01 -71.85, -68.68 94.29 10/30/2015 04:59:55 -71.90, -71.35 94.38 92.44 66
8 11/01/2015 08:53:38 72.75, 51.43 87.23 11/01/2015 08:54:29 72.76, 51.49 87.24 2.08 51
9 11/01/2015 09:44:31 -72.64,-141.06 92.87 11/01/2015 09:43:59 -72.64,-141.09 92.87 1.28 32
10 11/03/2015 14:27:47 -72.73, 147.97 92.09 11/03/2015 14:28:15 -72.73, 148.00 92.09 0.81 28
11 11/03/2015 15:18:52 72.64, -44.60 87.84 11/03/2015 15:17:42 72.63, -44.54 87.83 1.99 70
12 11/05/2015 19:11:14 -73.37, 75.76 90.83 11/05/2015 19:12:22 -73.27, 78.00 90.82 72.33 68
13 11/05/2015 20:02:07 72.70,-115.51 88.58 11/05/2015 20:01:58 72.70,-115.49 88.57 1.03 9




NCC Satellite Simultaneous Nadir Overpasses (SNOs) Prediction Service
